Chicago Midway, IL

4:37 AM CDT on October 17, 2017 (GMT -0500)
Chicago-Midway

Weather History for KMDW - April, 2013

Change the Weather History Date:

Thursday, April 4, 2013

  Actual Average Record
Temperature  
Mean Temperature 44 °F 46 °F  
Max Temperature 58 °F 55 °F 80 °F (1929)
Min Temperature 30 °F 38 °F 16 °F (1975)
Degree Days  
Heating Degree Days 21 19  
Month to date heating degree days 109 79  
Since 1 July heating degree days 5224 5402  
Cooling Degree Days 0 0  
Month to date cooling degree days 0 0  
Year to date cooling degree days 0 1  
Moisture  
Dew Point 19 °F    
Average Humidity 37    
Maximum Humidity 64    
Minimum Humidity 9    
Precipitation  
Precipitation 0.00 in 0.11 in 1.90 in (1947)
Month to date precipitation 0.00 0.45  
Year to date precipitation 5.51 7.17  
Sea Level Pressure  
Sea Level Pressure 30.14 in    
Wind  
Wind Speed 8 mph (SW)    
Max Wind Speed 16 mph    
Max Gust Speed 20 mph    
Visibility 10 miles    
Events      
T = Trace of Precipitation, MM = Missing Value Source: NWS Daily Summary

Daily Weather History Graph

Daily Weather History Graph

Search for Another Location

Airport or City:

Trip Planner

Search our weather history database for the weather conditions in past years. The results will help you decide how hot, cold, wet, or windy it might be!

Date:

Astronomy

Apr. 04, 2013 Rise Set
Actual Time 6:28 AM CDT 7:20 PM CDT
Civil Twilight 6:00 AM CDT 7:48 PM CDT
Nautical Twilight 5:26 AM CDT 8:21 PM CDT
Astronomical Twilight 4:51 AM CDT 8:56 PM CDT
Moon 2:59 AM CDT (4/4) 1:33 PM CDT (4/4)
Length of Visible Light 13h 48m
Length of Day
12h 51m
Waning Crescent, 33% of the Moon is Illuminated
Apr 4
Waning Crescent
Apr 10
New
Apr 18
First Quarter
Apr 25
Full
May 2
Last Quarter

Hourly Weather History & Observations

Time (CDT) Temp. Windchill Dew Point Humidity Pressure Visibility Wind Dir Wind Speed Gust Speed Precip Events Conditions
12:51 AM 33.1 °F 28.7 °F 21.0 °F 61% 30.35 in 10.0 mi SSE 4.6 mph - N/A   Partly Cloudy
1:51 AM 32.0 °F 27.5 °F 21.0 °F 64% 30.33 in 10.0 mi SE 4.6 mph - N/A   Partly Cloudy
2:51 AM 32.0 °F 27.5 °F 19.9 °F 61% 30.30 in 10.0 mi SSE 4.6 mph - N/A   Partly Cloudy
3:51 AM 30.9 °F 27.5 °F 18.0 °F 59% 30.29 in 10.0 mi SSE 3.5 mph - N/A   Scattered Clouds
4:51 AM 30.9 °F 27.5 °F 17.1 °F 57% 30.27 in 10.0 mi South 3.5 mph - N/A   Mostly Cloudy
5:51 AM 30.0 °F 26.5 °F 17.1 °F 59% 30.25 in 10.0 mi South 3.5 mph - N/A   Mostly Cloudy
6:51 AM 30.9 °F 27.5 °F 17.1 °F 57% 30.25 in 10.0 mi South 3.5 mph - N/A   Scattered Clouds
7:51 AM 33.8 °F 29.6 °F 17.6 °F 52% 30.23 in 10.0 mi SSW 4.6 mph - N/A   Mostly Cloudy
8:51 AM 39.9 °F 34.5 °F 18.0 °F 41% 30.24 in 10.0 mi SSW 8.1 mph - N/A   Scattered Clouds
9:51 AM 46.0 °F 40.2 °F 16.0 °F 30% 30.21 in 10.0 mi SSW 12.7 mph - N/A   Scattered Clouds
10:51 AM 48.0 °F - 16.0 °F 28% 30.18 in 10.0 mi SSW 10.4 mph - N/A   Partly Cloudy
11:51 AM 50.0 °F - 17.1 °F 27% 30.16 in 10.0 mi SW 6.9 mph 17.3 mph N/A   Partly Cloudy
12:51 PM 51.1 °F - 16.0 °F 25% 30.13 in 10.0 mi WSW 8.1 mph 17.3 mph N/A   Scattered Clouds
1:51 PM 54.0 °F - 17.1 °F 23% 30.09 in 10.0 mi West 8.1 mph 18.4 mph N/A   Partly Cloudy
2:51 PM 55.9 °F - 16.0 °F 21% 30.06 in 10.0 mi West 10.4 mph - N/A   Partly Cloudy
3:51 PM 57.0 °F - 15.1 °F 19% 30.03 in 10.0 mi West 13.8 mph 17.3 mph N/A   Partly Cloudy
4:51 PM 57.9 °F - 17.1 °F 20% 30.01 in 10.0 mi SW 12.7 mph - N/A   Partly Cloudy
5:51 PM 57.0 °F - 19.0 °F 23% 30.01 in 10.0 mi WSW 15.0 mph - N/A   Partly Cloudy
6:51 PM 55.9 °F - 21.9 °F 27% 30.00 in 10.0 mi WSW 13.8 mph - N/A   Partly Cloudy
7:51 PM 54.0 °F - 23.0 °F 30% 30.00 in 10.0 mi West 6.9 mph - N/A   Mostly Cloudy
8:51 PM 51.1 °F - 23.0 °F 33% 30.01 in 10.0 mi WSW 4.6 mph - N/A   Scattered Clouds
9:51 PM 50.0 °F - 24.1 °F 36% 30.00 in 10.0 mi WSW 4.6 mph - N/A   Partly Cloudy
10:51 PM 48.9 °F - 27.0 °F 43% 30.00 in 10.0 mi West 8.1 mph - N/A   Clear
11:51 PM 48.0 °F - 30.9 °F 52% 30.01 in 10.0 mi NW 9.2 mph - N/A   Partly Cloudy